Regional Weather Roundup
Issued by NWS Sioux Falls, SD

Home | Current Version | Previous Version | Graphics & Text | Print | Product List | Glossary Off
Versions: 1 2 3 4 5 6 7 8 9 10 11 12 13 14 15 16 17 18 19 20 21 22 23 24 25 26 27 28 29 30 31 32 33 34 35 36 37 38 39 40 41 42 43 44 45 46 47 48 49 50

000
ASUS43 KFSD 210410
RWRFSD

WEATHER ROUNDUP FOR SE SOUTH DAKOTA/SW MINNESOTA/NW IOWA
NATIONAL WEATHER SERVICE SIOUX FALLS SD
1000 PM CST MON NOV 20 2017

NOTE: "FAIR" INDICATES FEW OR NO CLOUDS BELOW 12,000 FEET WITH NO
SIGNIFICANT WEATHER AND OR OBSTRUCTIONS TO VISIBILITY.


SDZ038>040-050-052>070-210500-
SOUTHEAST SOUTH DAKOTA

CITY           SKY/WX    TMP DP  RH WIND       PRES   REMARKS
BROOKINGS      PTCLDY    36  25  64 NW10      29.66R
CHAMBERLAIN    PTCLDY    46  26  45 N7        29.71R
HURON          MOCLDY    40  26  57 N14       29.71R
MADISON        FAIR      39  25  56 N15       29.66R
MITCHELL       CLOUDY    47  24  40 NW14      29.70R
SIOUX FALLS    CLOUDY    40  24  53 NW10      29.65R
WINNER         FAIR      44  23  43 W3        29.73R
YANKTON        PTCLDY    44  25  47 W8        29.68R
$$

MNZ071-072-080-081-089-090-097-098-210500-
SOUTHWEST MINNESOTA

CITY           SKY/WX    TMP DP  RH WIND       PRES   REMARKS
FAIRMONT       CLEAR     40  26  57 W14       29.58R
JACKSON        CLEAR     39  25  56 W12       29.60R
LUVERNE        CLEAR     37  23  56 NW9       29.64R
MARSHALL       CLEAR     41  26  55 NW14      29.63R
MONTEVIDEO     CLEAR     39  27  60 N16G24    29.60R
PIPESTONE      CLEAR     39  21  48 N9        29.63R
REDWOOD FALLS  CLEAR     42  25  50 NW14      29.59R
WINDOM         CLEAR     36  19  51 W10       29.60R
WORTHINGTON    CLEAR     41  24  51 W14       29.62R
$$

IAZ001>003-012>014-020>022-031-032-NEZ013-014-SDZ071-210500-
NORTHWEST IOWA

CITY           SKY/WX    TMP DP  RH WIND       PRES   REMARKS
CHEROKEE       CLEAR     35  27  74 SW5       29.64R
DENISON        CLOUDY    43  28  56 SW5       29.67R
ESTHERVILLE    CLEAR     37  27  67 W13       29.59R
LE MARS        CLOUDY    41  27  56 W5        29.65R
ORANGE CITY    CLEAR     39  27  60 NW5       29.64R
SHELDON        CLEAR     34  23  64 W5        29.62R WCI  30
SIOUX CITY     PTCLDY    35  27  72 W5        29.66R
SPENCER        CLEAR     38  26  62 W10       29.61R
STORM LAKE     CLOUDY    39  27  60 W10       29.63R
$$

ABBREVIATIONS USED IN REMARKS
   TC - TEMPERATURE IN CELSIUS
  WCI - WIND CHILL INDEX
   HX - HEAT INDEX
  VSB - VISIBILITY





USA.gov is the U.S. government's official web portal to all federal, state and local government web resources and services.